Date String (YYYY-MM-DD hh:mm:ss) UTC,Instrument flags,Ambient pressure (hPa),Sample flow (lpm),Bypass flow (lpm),Sample temperature (°C),Ambient temperature (°C),ASC tube jacket temperature (°C),LED temperature (°C),Box temperature (°C),Sample RH (%),Span deviation,Mass concentration (μg/m³),Mass concentration (μg/m³),Mass concentration (μg/m³)
DateTimeUTC,F1_M11,P_M11,Q1_M11,Q2_M11,T1_M11,T2_M11,T3_M11,T4_M11,T5_M11,U1_M11,ZSPAN_M11,X2_M11,X0_M11,X1_M11
2021-10-17 13:00:00,,0830.9,5.00,0.00,27.0,25.9,00.0,36.1,28.7,09.6,0000.0,0002.64,0007.53,0001.87
2021-10-17 13:01:00,,0830.9,4.99,0.00,27.0,25.9,00.0,36.1,28.7,10.0,0000.0,0002.75,0007.52,0001.95
2021-10-17 13:02:00,,0830.9,5.00,0.00,27.0,25.9,00.0,36.1,28.8,10.4,0000.0,0002.87,0007.71,0002.06
2021-10-17 13:03:00,,0830.9,5.00,0.00,27.0,25.9,00.0,36.1,28.7,10.1,0000.0,0002.94,0007.79,0002.13
2021-10-17 13:04:00,,0830.9,4.99,0.00,27.0,25.9,00.0,36.1,28.7,09.9,0000.0,0002.94,0007.68,0002.14
2021-10-17 13:05:00,,0830.9,5.01,0.00,27.0,25.9,00.0,36.1,28.7,09.9,0000.0,0003.05,0007.61,0002.22
2021-10-17 13:06:00,,0830.9,5.00,0.00,27.0,25.9,00.0,36.1,28.7,10.0,0000.0,0003.11,0007.89,0002.26
2021-10-17 13:07:00,,0830.9,4.99,0.00,26.9,25.9,00.0,36.1,28.7,10.0,0000.0,0003.17,0008.56,0002.33
2021-10-17 13:08:00,,0830.9,5.01,0.00,26.9,25.9,00.0,36.1,28.7,10.0,0000.0,0003.23,0008.97,0002.40
2021-10-17 13:09:00,,0830.9,5.01,0.00,26.9,25.9,00.0,36.1,28.7,10.0,0000.0,0003.28,0008.97,0002.47
2021-10-17 13:10:00,,0830.9,4.99,0.00,26.9,25.9,00.0,36.1,28.7,10.0,0000.0,0003.30,0008.27,0002.51
2021-10-17 13:11:00,,0831.0,5.00,0.00,26.9,25.9,00.0,36.1,28.7,10.1,0000.0,0003.37,0008.20,0002.61
2021-10-17 13:12:00,,0830.9,5.00,0.00,26.9,25.9,00.0,36.1,28.7,10.2,0000.0,0003.42,0008.27,0002.71
2021-10-17 13:13:00,,0830.9,5.00,0.00,26.9,25.9,00.0,36.1,28.7,10.2,0000.0,0003.47,0008.34,0002.77
2021-10-17 13:14:00,,0830.9,5.01,0.00,26.9,25.9,00.0,36.1,28.6,10.2,0000.0,0003.51,0009.06,0002.81
2021-10-17 13:15:00,,0830.9,4.98,0.00,26.9,25.8,00.0,36.1,28.6,10.2,0000.0,0003.54,0009.13,0002.87
2021-10-17 13:16:00,,0830.9,5.00,0.00,26.9,25.8,00.0,36.0,28.6,10.2,0000.0,0003.54,0009.14,0002.87
2021-10-17 13:17:00,,0830.9,5.01,0.00,26.8,25.8,00.0,36.0,28.6,10.2,0000.0,0003.52,0009.00,0002.84
2021-10-17 13:18:00,,0830.9,5.00,0.00,26.8,25.8,00.0,36.0,28.6,10.1,0000.0,0003.50,0007.84,0002.85
2021-10-17 13:19:00,,0830.9,5.01,0.00,26.8,25.8,00.0,36.0,28.6,10.2,0000.0,0003.49,0007.49,0002.86
2021-10-17 13:20:00,,0830.9,4.99,0.00,26.8,25.8,00.0,36.0,28.6,10.3,0000.0,0003.52,0007.89,0002.91
2021-10-17 13:21:00,,0830.9,5.01,0.00,26.8,25.8,00.0,36.0,28.5,10.4,0000.0,0003.58,0008.15,0002.98
2021-10-17 13:22:00,,0830.8,4.99,0.00,26.8,25.8,00.0,36.0,28.6,10.4,0000.0,0003.64,0008.49,0003.02
2021-10-17 13:23:00,,0830.9,5.01,0.00,26.8,25.8,00.0,36.0,28.6,10.5,0000.0,0003.64,0008.52,0003.03
2021-10-17 13:24:00,,0830.9,5.00,0.00,26.8,25.8,00.0,36.0,28.6,10.5,0000.0,0003.66,0008.62,0003.05
2021-10-17 13:25:00,,0830.9,4.99,0.00,26.8,25.8,00.0,36.0,28.6,10.5,0000.0,0003.66,0007.84,0003.07
2021-10-17 13:26:00,,0830.9,5.00,0.00,26.8,25.8,00.0,36.0,28.6,10.4,0000.0,0003.70,0007.93,0003.11
2021-10-17 13:27:00,,0830.9,5.01,0.00,26.8,25.8,00.0,36.0,28.5,10.4,0000.0,0003.74,0008.64,0003.13
2021-10-17 13:28:00,,0830.9,4.99,0.00,26.8,25.8,00.0,36.0,28.6,10.5,0000.0,0003.76,0009.03,0003.16
2021-10-17 13:29:00,,0831.0,5.01,0.00,26.8,25.8,00.0,35.9,28.5,10.5,0000.0,0003.82,0009.43,0003.20
2021-10-17 13:30:00,,0830.9,4.98,0.00,26.8,25.8,00.0,35.9,28.5,10.4,0000.0,0003.83,0010.13,0003.22
2021-10-17 13:31:00,,0830.9,5.01,0.00,26.8,25.7,00.0,35.9,28.5,10.5,0000.0,0003.83,0010.16,0003.21
2021-10-17 13:32:00,,0830.9,5.00,0.00,26.8,25.7,00.0,35.9,28.5,10.5,0000.0,0003.80,0009.97,0003.20
2021-10-17 13:33:00,,0830.9,4.99,0.00,26.8,25.7,00.0,35.9,28.5,10.3,0000.0,0003.73,0009.53,0003.17
2021-10-17 13:34:00,,0830.9,5.00,0.00,26.8,25.7,00.0,35.9,28.5,10.2,0000.0,0003.68,0009.41,0003.12
2021-10-17 13:35:00,,0830.9,5.00,0.00,26.8,25.7,00.0,35.9,28.5,10.3,0000.0,0003.65,0009.32,0003.07
2021-10-17 13:36:00,,0830.9,4.99,0.00,26.8,25.7,00.0,35.9,28.5,10.3,0000.0,0003.62,0009.29,0003.02
2021-10-17 13:37:00,,0830.9,5.01,0.00,26.7,25.7,00.0,35.9,28.5,10.3,0000.0,0003.60,0009.35,0002.97
2021-10-17 13:38:00,,0830.9,5.00,0.00,26.7,25.7,00.0,35.9,28.5,10.3,0000.0,0003.58,0008.86,0002.92
2021-10-17 13:39:00,,0830.9,4.99,0.00,26.7,25.7,00.0,35.9,28.5,10.4,0000.0,0003.55,0008.33,0002.90
2021-10-17 13:40:00,,0830.9,5.00,0.00,26.7,25.7,00.0,35.9,28.5,10.4,0000.0,0003.52,0007.93,0002.86
2021-10-17 13:41:00,,0830.9,5.02,0.00,26.7,25.7,00.0,35.9,28.5,10.5,0000.0,0003.51,0007.09,0002.83
2021-10-17 13:42:00,,0830.9,4.99,0.00,26.7,25.7,00.0,35.9,28.5,10.4,0000.0,0003.52,0006.68,0002.82
2021-10-17 13:43:00,,0830.8,5.00,0.00,26.7,25.7,00.0,35.9,28.5,10.5,0000.0,0003.50,0006.51,0002.81
2021-10-17 13:44:00,,0830.8,5.01,0.00,26.8,25.7,00.0,35.9,28.5,10.5,0000.0,0003.50,0006.61,0002.82
2021-10-17 13:45:00,,0830.8,5.00,0.00,26.8,25.8,00.0,35.9,28.5,10.5,0000.0,0003.53,0006.67,0002.86
2021-10-17 13:46:00,,0830.8,5.01,0.00,26.8,25.8,00.0,35.9,28.5,10.5,0000.0,0003.57,0006.83,0002.88
2021-10-17 13:47:00,,0830.8,5.00,0.00,26.8,25.8,00.0,35.9,28.6,10.5,0000.0,0003.58,0006.93,0002.89
2021-10-17 13:48:00,,0830.8,5.01,0.00,26.8,25.8,00.0,35.9,28.5,10.5,0000.0,0003.57,0006.72,0002.91
2021-10-17 13:49:00,,0830.8,4.99,0.00,26.8,25.8,00.0,35.9,28.5,10.5,0000.0,0003.55,0006.51,0002.94
2021-10-17 13:50:00,,0830.7,5.00,0.00,26.8,25.8,00.0,35.9,28.6,10.5,0000.0,0003.55,0006.42,0002.96
2021-10-17 13:51:00,,0830.7,5.01,0.00,26.8,25.8,00.0,35.9,28.6,10.5,0000.0,0003.57,0007.32,0003.00
2021-10-17 13:52:00,,0830.8,5.00,0.00,26.8,25.9,00.0,35.9,28.6,10.5,0000.0,0003.57,0007.60,0003.02
2021-10-17 13:53:00,,0830.8,5.01,0.00,26.8,25.9,00.0,35.9,28.6,10.5,0000.0,0003.56,0007.51,0003.06
2021-10-17 13:54:00,,0830.8,5.01,0.00,26.8,25.9,00.0,35.9,28.6,10.5,0000.0,0003.63,0007.60,0003.12
2021-10-17 13:55:00,,0830.8,5.00,0.00,26.8,25.9,00.0,35.9,28.6,10.5,0000.0,0003.65,0007.54,0003.15
2021-10-17 13:56:00,,0830.8,5.00,0.00,26.8,25.9,00.0,35.9,28.7,10.4,0000.0,0003.65,0007.50,0003.15
2021-10-17 13:57:00,,0830.7,4.99,0.00,26.8,25.9,00.0,35.9,28.7,10.4,0000.0,0003.63,0007.46,0003.15
2021-10-17 13:58:00,,0830.8,5.01,0.00,26.9,25.9,00.0,35.9,28.7,10.4,0000.0,0003.64,0007.41,0003.16
2021-10-17 13:59:00,,0830.8,5.01,0.00,26.9,25.9,00.0,35.9,28.7,10.4,0000.0,0003.66,0007.39,0003.17
